7 * 24
多渠道服务支持
STARLINK-37371(NORAD编号68977)是美国SpaceX公司星链(Starlink)星座中的一颗低轨互联网通信卫星。星链项目旨在通过部署近地轨道卫星群,为全球尤其是偏远地区提供高速低延迟的互联网接入服务。作为星链卫星家族的一员,它运行在近地轨道,承担着星座组网中的通信转发任务,助力扩展全球网络覆盖范围。这类小型低轨卫星依托SpaceX可重复发射技术降低成本,批量部署构建卫星互联网,虽提升了全球连通性,也引发了太空拥堵和天文观测干扰等争议。
美国
(US)
| 数据来源 | 国际轨道数据 |
| 星历时间: | 2026-07-27T22:56:00+0800 9小时前 查看轨道信息 |
| 半长轴: | 6840.809km |
| 偏心率: | 0.000099 |
| 轨道倾角: | 53.159° |
| 近地点辐角 | 87.804° |
| 升交点赤经 | 332.008° |
| 平近点角 | 272.308° |
| 近地点: | 461.994km |
| 远地点: | 463.35km |
| 周期: | 93.847分钟 |
| 每日圈数: | 15.344108 |